| time (UTC) | temp F | wind direction | speed knots | gust knots | rain 1hr in | rain 24hr in | rain mn in | humidity % | barometer mb |
| 20260505163539 | 66 | 299 | 4.3 | 9.6 | 0.00 | 0.14 | 0.14 | 69 | 1008.4 |
| 20260505163030 | 66 | 114 | 4.3 | 9.6 | 0.00 | 0.14 | 0.14 | 69 | 1007.8 |
| 20260505163011 | 66 | 111 | 4.3 | 9.6 | 0.00 | 0.14 | 0.14 | 69 | 1008.4 |
| 20260505162512 | 66 | 308 | 4.3 | 10.4 | 0.00 | 0.14 | 0.14 | 70 | 1008.4 |
| 20260505161941 | 66 | 295 | 5.2 | 13.0 | 0.00 | 0.14 | 0.14 | 69 | 1008.4 |
| 20260505161535 | 66 | 285 | 6.1 | 13.0 | 0.00 | 0.14 | 0.14 | 70 | 1007.8 |
| 20260505161439 | 66 | 286 | 5.2 | 13.0 | 0.00 | 0.14 | 0.14 | 70 | 1008.3 |
| 20260505160915 | 66 | 286 | 5.2 | 9.6 | 0.00 | 0.14 | 0.14 | 70 | 1008.4 |
| 20260505160347 | 66 | 286 | 4.3 | 11.3 | 0.00 | 0.14 | 0.14 | 70 | 1008.3 |
| 20260505153242 | 66 | 120 | 4.3 | 10.4 | 0.00 | 0.14 | 0.14 | 73 | 1008.2 |
| 20260505153101 | 66 | 136 | 4.3 | 10.4 | 0.00 | 0.14 | 0.14 | 71 | 1007.6 |
| 20260505152730 | 66 | 134 | 4.3 | 10.4 | 0.00 | 0.14 | 0.14 | 73 | 1008.2 |
| 20260505152231 | 66 | 111 | 5.2 | 10.4 | 0.00 | 0.14 | 0.14 | 73 | 1008.2 |
| 20260505151705 | 66 | 128 | 4.3 | 10.4 | 0.00 | 0.14 | 0.14 | 75 | 1008.1 |
| 20260505151504 | 65 | 103 | 3.5 | 9.6 | 0.00 | 0.14 | 0.14 | 75 | 1007.6 |
| 20260505151204 | 65 | 91 | 5.2 | 11.3 | 0.00 | 0.14 | 0.14 | 76 | 1008.2 |
| 20260505150708 | 65 | 143 | 4.3 | 11.3 | 0.00 | 0.14 | 0.14 | 76 | 1008.2 |
| 20260505150148 | 65 | 75 | 4.3 | 10.4 | 0.00 | 0.14 | 0.14 | 79 | 1008.3 |
| 20260505140452 | 61 | 156 | 2.6 | 8.7 | 0.00 | 0.14 | 0.14 | 91 | 1007.9 |
| 20260505124817 | 58 | 273 | 3.5 | 10.4 | 0.00 | 0.14 | 0.14 | 94 | 1007.5 |
| 20260505124608 | 58 | 290 | 3.5 | 10.4 | 0.00 | 0.14 | 0.14 | 94 | 1006.8 |
| 20260505124314 | 59 | 273 | 2.6 | 5.2 | 0.00 | 0.14 | 0.14 | 94 | 1007.5 |
| 20260505123747 | 58 | 273 | 2.6 | 7.8 | 0.01 | 0.14 | 0.14 | 94 | 1007.7 |
| 20260505123225 | 58 | 273 | 2.6 | 7.8 | 0.01 | 0.14 | 0.14 | 94 | 1007.9 |
| 20260505123045 | 58 | 273 | 1.7 | 5.2 | 0.01 | 0.14 | 0.14 | 94 | 1007.5 |
| 20260505122705 | 58 | 288 | 2.6 | 6.1 | 0.02 | 0.14 | 0.14 | 94 | 1008.1 |
| 20260505122207 | 58 | 286 | 2.6 | 7.0 | 0.02 | 0.14 | 0.14 | 94 | 1007.9 |
| 20260505121653 | 58 | 287 | 2.6 | 7.8 | 0.02 | 0.14 | 0.14 | 94 | 1008.0 |
| 20260505121527 | 58 | 288 | 0.9 | 7.8 | 0.02 | 0.14 | 0.14 | 94 | 1007.5 |
| 20260505121417 | 58 | 273 | 2.6 | 7.8 | 0.02 | 0.14 | 0.14 | 94 | 1008.2 |
| 20260505120657 | 58 | 273 | 1.7 | 7.8 | 0.02 | 0.14 | 0.14 | 94 | 1008.2 |
| 20260505120142 | 58 | 273 | 2.6 | 7.8 | 0.02 | 0.14 | 0.14 | 94 | 1008.2 |
| 20260505120125 | 58 | 289 | 2.6 | 7.8 | 0.02 | 0.14 | 0.14 | 94 | 1008.2 |
| 20260505120041 | 57 | 273 | 1.7 | 7.8 | 0.02 | 0.14 | 0.14 | 94 | 1007.7 |
| 20260505115137 | 58 | 291 | 2.6 | 7.8 | 0.02 | 0.14 | 0.14 | 94 | 1008.2 |
| 20260505114638 | 58 | 288 | 1.7 | 7.8 | 0.02 | 0.14 | 0.14 | 94 | 1008.1 |
| 20260505114507 | 57 | 288 | 2.6 | 7.8 | 0.02 | 0.14 | 0.14 | 94 | 1007.6 |
| 20260505114114 | 58 | 287 | 1.7 | 5.2 | 0.01 | 0.13 | 0.13 | 94 | 1007.9 |
| 20260505113556 | 58 | 288 | 1.7 | 3.5 | 0.01 | 0.13 | 0.13 | 94 | 1007.8 |
| 20260505113054 | 57 | 287 | 1.7 | 7.0 | 0.01 | 0.13 | 0.13 | 94 | 1007.7 |
| 20260505113019 | 57 | 287 | 0.9 | 4.3 | 0.01 | 0.13 | 0.13 | 94 | 1007.1 |
| 20260505112552 | 57 | 288 | 1.7 | 7.0 | 0.01 | 0.12 | 0.12 | 93 | 1007.5 |
| 20260505112317 | 57 | 289 | 2.6 | 7.0 | 0.02 | 0.12 | 0.12 | 93 | 1007.5 |
| 20260505111752 | 57 | 289 | 2.6 | 7.0 | 0.02 | 0.12 | 0.12 | 93 | 1007.4 |
| 20260505111509 | 57 | 289 | 2.6 | 7.0 | 0.02 | 0.12 | 0.12 | 93 | 1007.0 |
| 20260505111021 | 57 | 287 | 1.7 | 6.1 | 0.05 | 0.12 | 0.12 | 93 | 1007.1 |
| 20260505110526 | 57 | 288 | 1.7 | 4.3 | 0.06 | 0.12 | 0.12 | 93 | 1006.8 |
| 20260505101915 | 57 | 273 | 0.9 | 4.3 | 0.10 | 0.10 | 0.10 | 91 | 1008.1 |
| 20260505101537 | 57 | 273 | 0.9 | 4.3 | 0.10 | 0.10 | 0.10 | 91 | 1007.6 |
| 20260505101412 | 58 | 273 | 0.9 | 4.3 | 0.10 | 0.10 | 0.10 | 90 | 1008.2 |
| 20260505100909 | 58 | 273 | 1.7 | 5.2 | 0.07 | 0.07 | 0.07 | 90 | 1008.4 |
| 20260505100630 | 58 | 273 | 2.6 | 10.4 | 0.06 | 0.06 | 0.06 | 90 | 1008.5 |
| 20260505100023 | 58 | 273 | 1.7 | 10.4 | 0.05 | 0.05 | 0.05 | 89 | 1008.1 |
| 20260505095841 | 58 | 273 | 3.5 | 10.4 | 0.04 | 0.04 | 0.04 | 89 | 1008.6 |
| 20260505095337 | 58 | 273 | 3.5 | 10.4 | 0.03 | 0.03 | 0.03 | 88 | 1008.4 |
| 20260505094811 | 59 | 273 | 1.7 | 10.4 | 0.02 | 0.02 | 0.02 | 87 | 1008.4 |
| 20260505094636 | 59 | 273 | 2.6 | 10.4 | 0.02 | 0.02 | 0.02 | 87 | 1007.8 |
| 20260505094310 | 59 | 273 | 0.9 | 7.0 | 0.02 | 0.02 | 0.02 | 87 | 1008.3 |
| 20260505093741 | 60 | 273 | 1.7 | 5.2 | 0.01 | 0.01 | 0.01 | 86 | 1008.3 |
| 20260505093216 | 60 | 273 | 1.7 | 7.0 | 0.01 | 0.01 | 0.01 | 84 | 1008.2 |
| 20260505093100 | 60 | 273 | 0.9 | 7.0 | 0.01 | 0.01 | 0.01 | 83 | 1007.7 |
| 20260505092649 | 61 | 273 | 1.7 | 7.0 | 0.01 | 0.01 | 0.01 | 82 | 1008.1 |
| 20260505092143 | 62 | 273 | 1.7 | 3.5 | 0.01 | 0.01 | 0.01 | 78 | 1007.8 |
| 20260505091644 | 63 | 289 | 0.9 | 2.6 | 0.00 | 0.00 | 0.00 | 75 | 1007.6 |
| 20260505091532 | 63 | 289 | 0.9 | 2.6 | 0.00 | 0.00 | 0.00 | 74 | 1007.2 |
| 20260505091116 | 64 | 287 | 2.6 | 8.7 | 0.00 | 0.00 | 0.00 | 70 | 1007.3 |
| 20260505090557 | 64 | 288 | 2.6 | 8.7 | 0.00 | 0.00 | 0.00 | 68 | 1007.3 |
| 20260505090309 | 65 | 287 | 1.7 | 3.5 | 0.00 | 0.00 | 0.00 | 63 | 1007.5 |
| 20260505090034 | 64 | 287 | 1.7 | 3.5 | 0.00 | 0.00 | 0.00 | 63 | 1007.1 |
| 20260505085804 | 65 | 287 | 0.9 | 2.6 | 0.00 | 0.00 | 0.00 | 63 | 1007.2 |
| 20260505085041 | 65 | 287 | 0.9 | 2.6 | 0.00 | 0.00 | 0.00 | 62 | 1006.9 |
| 20260505084618 | 65 | 287 | 0.9 | 3.5 | 0.00 | 0.00 | 0.00 | 62 | 1006.5 |
| 20260505084537 | 65 | 287 | 0.9 | 3.5 | 0.00 | 0.00 | 0.00 | 62 | 1006.9 |
| 20260505084011 | 65 | 286 | 0.9 | 3.5 | 0.00 | 0.00 | 0.00 | 61 | 1006.9 |
| 20260505083927 | 65 | 286 | 1.7 | 3.5 | 0.00 | 0.00 | 0.00 | 61 | 1006.8 |
| 20260505083112 | 65 | 287 | 0.9 | 3.5 | 0.00 | 0.00 | 0.00 | 61 | 1006.3 |
| 20260505082920 | 65 | 287 | 1.7 | 2.6 | 0.00 | 0.00 | 0.00 | 61 | 1006.7 |
| 20260505082353 | 66 | 286 | 1.7 | 4.3 | 0.00 | 0.00 | 0.00 | 60 | 1006.5 |
| 20260505081852 | 66 | 288 | 1.7 | 4.3 | 0.00 | 0.00 | 0.00 | 60 | 1006.3 |
| 20260505081602 | 65 | 288 | 1.7 | 4.3 | 0.00 | 0.00 | 0.00 | 59 | 1005.8 |
| 20260505081322 | 66 | 287 | 1.7 | 6.1 | 0.00 | 0.00 | 0.00 | 59 | 1006.2 |
| 20260505080820 | 66 | 288 | 2.6 | 6.1 | 0.00 | 0.00 | 0.00 | 59 | 1006.2 |
| 20260505080542 | 66 | 288 | 2.6 | 8.7 | 0.00 | 0.00 | 0.00 | 59 | 1006.2 |
| 20260505080011 | 66 | 288 | 1.7 | 8.7 | 0.00 | 0.00 | 0.00 | 58 | 1005.7 |
| 20260505075816 | 67 | 288 | 4.3 | 11.3 | 0.00 | 0.00 | 0.00 | 58 | 1006.2 |
| 20260505075245 | 67 | 287 | 4.3 | 11.3 | 0.00 | 0.00 | 0.00 | 58 | 1006.3 |
| 20260505074743 | 67 | 286 | 3.5 | 8.7 | 0.00 | 0.00 | 0.00 | 58 | 1006.3 |
| 20260505074628 | 66 | 288 | 3.5 | 8.7 | 0.00 | 0.00 | 0.00 | 58 | 1005.9 |
| 20260505074220 | 67 | 286 | 3.5 | 7.8 | 0.00 | 0.00 | 0.00 | 58 | 1006.3 |
| 20260505073718 | 67 | 288 | 2.6 | 7.8 | 0.00 | 0.00 | 0.00 | 58 | 1006.3 |
| 20260505073217 | 67 | 287 | 2.6 | 7.0 | 0.00 | 0.00 | 0.00 | 57 | 1006.2 |
| 20260505073038 | 67 | 286 | 1.7 | 4.3 | 0.00 | 0.00 | 0.00 | 57 | 1005.7 |
| 20260505072926 | 67 | 286 | 2.6 | 8.7 | 0.00 | 0.00 | 0.00 | 57 | 1006.1 |
| 20260505072207 | 67 | 287 | 3.5 | 11.3 | 0.00 | 0.00 | 0.00 | 57 | 1006.0 |
| 20260505071640 | 67 | 287 | 4.3 | 11.3 | 0.00 | 0.00 | 0.00 | 56 | 1005.9 |
| 20260505071549 | 67 | 287 | 2.6 | 11.3 | 0.00 | 0.00 | 0.00 | 56 | 1005.4 |
| 20260505071400 | 67 | 287 | 4.3 | 11.3 | 0.00 | 0.00 | 0.00 | 57 | 1005.9 |
| 20260505070608 | 67 | 286 | 3.5 | 11.3 | 0.00 | 0.00 | 0.00 | 57 | 1006.0 |
| 20260505070304 | 67 | 286 | 4.3 | 11.3 | 0.00 | 0.00 | 0.00 | 57 | 1006.0 |
| 20260505070010 | 66 | 286 | 3.5 | 11.3 | 0.00 | 0.00 | 0.00 | 58 | 1005.6 |
| 20260505065511 | 67 | 287 | 3.5 | 11.3 | 0.00 | 0.00 | 0.00 | 58 | 1006.0 |
| 20260505065241 | 66 | 288 | 2.6 | 8.7 | 0.00 | 0.00 | 0.00 | 59 | 1005.8 |
| 20260505064725 | 66 | 286 | 3.5 | 8.7 | 0.00 | 0.00 | 0.00 | 59 | 1005.8 |
| 20260505064523 | 66 | 286 | 1.7 | 8.7 | 0.00 | 0.00 | 0.00 | 59 | 1005.4 |
| 20260505064006 | 67 | 286 | 3.5 | 8.7 | 0.00 | 0.00 | 0.00 | 59 | 1005.7 |
| 20260505063501 | 67 | 287 | 3.5 | 7.8 | 0.00 | 0.00 | 0.00 | 59 | 1005.7 |
| 20260505063016 | 66 | 287 | 2.6 | 7.8 | 0.00 | 0.00 | 0.00 | 58 | 1005.2 |
| 20260505062958 | 67 | 288 | 3.5 | 7.8 | 0.00 | 0.00 | 0.00 | 58 | 1005.7 |
| 20260505062458 | 67 | 286 | 2.6 | 8.7 | 0.00 | 0.00 | 0.00 | 58 | 1005.7 |
| 20260505061943 | 67 | 286 | 3.5 | 8.7 | 0.00 | 0.00 | 0.00 | 58 | 1005.7 |
| 20260505061708 | 67 | 286 | 3.5 | 11.3 | 0.00 | 0.00 | 0.00 | 57 | 1005.7 |
| 20260505061529 | 67 | 286 | 2.6 | 8.7 | 0.00 | 0.00 | 0.00 | 58 | 1005.3 |
| 20260505061204 | 67 | 288 | 4.3 | 11.3 | 0.00 | 0.00 | 0.00 | 57 | 1005.7 |
| 20260505060441 | 68 | 286 | 4.3 | 9.6 | 0.00 | 0.00 | 0.00 | 56 | 1005.6 |
| 20260505060047 | 68 | 297 | 3.5 | 8.7 | 0.00 | 0.00 | 0.00 | 55 | 1005.1 |
| 20260505055915 | 68 | 286 | 4.3 | 8.7 | 0.00 | 0.00 | 0.00 | 55 | 1005.5 |
| 20260505055610 | 69 | 287 | 4.3 | 8.7 | 0.00 | 0.00 | 0.00 | 55 | 1005.4 |
| 20260505055103 | 69 | 164 | 5.2 | 10.4 | 0.00 | 0.00 | 0.00 | 55 | 1005.2 |
| 20260505054555 | 69 | 124 | 5.2 | 12.2 | 0.00 | 0.00 | 0.00 | 55 | 1005.1 |
| 20260505054506 | 68 | 85 | 2.6 | 10.4 | 0.00 | 0.00 | 0.00 | 55 | 1004.7 |
| 20260505053836 | 69 | 134 | 5.2 | 14.8 | 0.00 | 0.00 | 0.00 | 54 | 1005.2 |
| 20260505053310 | 69 | 293 | 5.2 | 14.8 | 0.00 | 0.00 | 0.00 | 54 | 1005.0 |
| 20260505053025 | 69 | 288 | 4.3 | 14.8 | 0.00 | 0.00 | 0.00 | 54 | 1004.7 |
| 20260505052754 | 69 | 287 | 5.2 | 16.5 | 0.00 | 0.00 | 0.00 | 54 | 1005.0 |
| 20260505052253 | 69 | 118 | 6.1 | 16.5 | 0.00 | 0.00 | 0.00 | 53 | 1004.9 |
| 20260505051753 | 69 | 167 | 6.1 | 16.5 | 0.00 | 0.00 | 0.00 | 53 | 1004.9 |
| 20260505051534 | 69 | 113 | 4.3 | 16.5 | 0.00 | 0.00 | 0.00 | 53 | 1004.5 |
| 20260505051254 | 69 | 130 | 6.1 | 16.5 | 0.00 | 0.00 | 0.00 | 53 | 1004.9 |
| 20260505050726 | 69 | 122 | 7.0 | 16.5 | 0.00 | 0.00 | 0.00 | 53 | 1004.9 |
| 20260505050224 | 69 | 297 | 6.1 | 19.1 | 0.00 | 0.00 | 0.00 | 53 | 1004.7 |
| 20260505041605 | 68 | 286 | 3.5 | 8.7 | 0.00 | 0.00 | 0.00 | 57 | 1005.2 |
| 20260505041524 | 69 | 288 | 4.3 | 8.7 | 0.00 | 0.00 | 0.00 | 56 | 1005.6 |
| 20260505040957 | 69 | 286 | 4.3 | 9.6 | 0.00 | 0.00 | 0.00 | 57 | 1005.6 |
| 20260505040429 | 69 | 287 | 4.3 | 9.6 | 0.00 | 0.00 | 0.00 | 57 | 1005.7 |
| 20260505040043 | 68 | 286 | 4.3 | 9.6 | 0.00 | 0.00 | 0.00 | 57 | 1005.4 |
| 20260505035929 | 69 | 286 | 3.5 | 9.6 | 0.00 | 0.00 | 0.00 | 57 | 1005.7 |
| 20260505035429 | 69 | 287 | 3.5 | 8.7 | 0.00 | 0.00 | 0.00 | 58 | 1005.8 |
| 20260505034927 | 69 | 285 | 3.5 | 9.6 | 0.00 | 0.00 | 0.00 | 58 | 1005.8 |
| 20260505034654 | 68 | 286 | 3.5 | 10.4 | 0.00 | 0.00 | 0.00 | 58 | 1005.4 |
| 20260505034641 | 69 | 286 | 4.3 | 10.4 | 0.00 | 0.00 | 0.00 | 58 | 1005.8 |
| 20260505033919 | 69 | 285 | 3.5 | 10.4 | 0.00 | 0.00 | 0.00 | 58 | 1005.7 |
| 20260505033417 | 69 | 286 | 3.5 | 8.7 | 0.00 | 0.00 | 0.00 | 58 | 1005.7 |
| 20260505033106 | 68 | 288 | 2.6 | 7.8 | 0.00 | 0.00 | 0.00 | 58 | 1005.5 |
| 20260505032922 | 69 | 286 | 3.5 | 7.8 | 0.00 | 0.00 | 0.00 | 58 | 1005.8 |
| 20260505032357 | 69 | 286 | 3.5 | 13.0 | 0.00 | 0.00 | 0.00 | 58 | 1005.8 |
| 20260505031836 | 69 | 285 | 3.5 | 9.6 | 0.00 | 0.00 | 0.00 | 58 | 1005.7 |
| 20260505031525 | 69 | 286 | 3.5 | 9.6 | 0.00 | 0.00 | 0.00 | 58 | 1005.4 |
| 20260505031336 | 69 | 287 | 2.6 | 9.6 | 0.00 | 0.00 | 0.00 | 58 | 1005.7 |
| 20260505030821 | 69 | 287 | 2.6 | 7.8 | 0.00 | 0.00 | 0.00 | 58 | 1005.7 |
| 20260505030256 | 69 | 286 | 3.5 | 8.7 | 0.00 | 0.00 | 0.00 | 58 | 1005.7 |
| 20260505030059 | 69 | 286 | 2.6 | 8.7 | 0.00 | 0.00 | 0.00 | 58 | 1005.4 |
| 20260505025759 | 69 | 288 | 3.5 | 7.8 | 0.00 | 0.00 | 0.00 | 58 | 1005.6 |
| 20260505025248 | 69 | 286 | 3.5 | 8.7 | 0.00 | 0.00 | 0.00 | 57 | 1005.5 |
| 20260505024746 | 69 | 288 | 3.5 | 10.4 | 0.00 | 0.00 | 0.00 | 57 | 1005.5 |
| 20260505024510 | 69 | 288 | 2.6 | 10.4 | 0.00 | 0.00 | 0.00 | 57 | 1005.1 |
| 20260505024245 | 70 | 286 | 3.5 | 11.3 | 0.00 | 0.00 | 0.00 | 57 | 1005.4 |
| 20260505023744 | 70 | 290 | 3.5 | 11.3 | 0.00 | 0.00 | 0.00 | 57 | 1005.3 |
| 20260505023244 | 70 | 286 | 3.5 | 7.8 | 0.00 | 0.00 | 0.00 | 56 | 1005.2 |
| 20260505023041 | 69 | 287 | 2.6 | 7.8 | 0.00 | 0.00 | 0.00 | 56 | 1004.9 |
| 20260505022740 | 70 | 74 | 3.5 | 9.6 | 0.00 | 0.00 | 0.00 | 56 | 1005.2 |
| 20260505022241 | 70 | 115 | 3.5 | 9.6 | 0.00 | 0.00 | 0.00 | 56 | 1005.1 |
| 20260505021942 | 70 | 70 | 3.5 | 8.7 | 0.00 | 0.00 | 0.00 | 56 | 1005.0 |
| 20260505021637 | 70 | 89 | 2.6 | 8.7 | 0.00 | 0.00 | 0.00 | 56 | 1004.7 |
| 20260505021228 | 70 | 116 | 3.5 | 8.7 | 0.00 | 0.00 | 0.00 | 56 | 1005.0 |
| 20260505020704 | 70 | 103 | 3.5 | 9.6 | 0.00 | 0.00 | 0.00 | 56 | 1004.9 |
| 20260505020142 | 70 | 63 | 3.5 | 9.6 | 0.00 | 0.00 | 0.00 | 55 | 1004.7 |
| 20260505020005 | 70 | 53 | 2.6 | 9.6 | 0.00 | 0.00 | 0.00 | 55 | 1004.4 |
| 20260505015620 | 71 | 88 | 3.5 | 7.8 | 0.00 | 0.00 | 0.00 | 55 | 1004.7 |
| 20260505015100 | 71 | 78 | 2.6 | 7.8 | 0.00 | 0.00 | 0.00 | 55 | 1004.6 |
| 20260505014544 | 71 | 107 | 3.5 | 8.7 | 0.00 | 0.00 | 0.00 | 54 | 1004.6 |
| 20260505014522 | 70 | 96 | 2.6 | 7.8 | 0.00 | 0.00 | 0.00 | 54 | 1004.4 |
| 20260505014031 | 71 | 84 | 2.6 | 8.7 | 0.00 | 0.00 | 0.00 | 54 | 1004.6 |
| 20260505013751 | 71 | 59 | 3.5 | 7.0 | 0.00 | 0.00 | 0.00 | 54 | 1004.6 |
| 20260505013230 | 71 | 116 | 3.5 | 7.8 | 0.00 | 0.00 | 0.00 | 53 | 1004.5 |
| 20260505013042 | 71 | 109 | 2.6 | 7.8 | 0.00 | 0.00 | 0.00 | 53 | 1004.2 |
| 20260505012438 | 71 | 122 | 3.5 | 9.6 | 0.00 | 0.00 | 0.00 | 53 | 1004.5 |
| 20260505011912 | 71 | 81 | 2.6 | 7.0 | 0.00 | 0.00 | 0.00 | 52 | 1004.5 |
| 20260505011550 | 71 | 111 | 2.6 | 7.0 | 0.00 | 0.00 | 0.00 | 52 | 1004.1 |
| 20260505011407 | 72 | 122 | 3.5 | 7.0 | 0.00 | 0.00 | 0.00 | 52 | 1004.4 |
| 20260505010841 | 72 | 89 | 3.5 | 8.7 | 0.00 | 0.00 | 0.00 | 52 | 1004.4 |
| 20260505010321 | 72 | 134 | 3.5 | 8.7 | 0.00 | 0.00 | 0.00 | 51 | 1004.4 |
| 20260505010009 | 72 | 95 | 2.6 | 8.7 | 0.00 | 0.00 | 0.00 | 51 | 1004.1 |
| 20260505005823 | 72 | 84 | 3.5 | 8.7 | 0.00 | 0.00 | 0.00 | 51 | 1004.4 |
| 20260505005258 | 72 | 64 | 3.5 | 8.7 | 0.00 | 0.00 | 0.00 | 50 | 1004.4 |
| 20260505004735 | 73 | 137 | 3.5 | 7.8 | 0.00 | 0.00 | 0.00 | 50 | 1004.4 |
| 20260505004557 | 72 | 108 | 2.6 | 7.8 | 0.00 | 0.00 | 0.00 | 49 | 1004.1 |
| 20260505004209 | 73 | 120 | 3.5 | 10.4 | 0.00 | 0.00 | 0.00 | 50 | 1004.4 |
| 20260505003707 | 73 | 114 | 4.3 | 10.4 | 0.00 | 0.00 | 0.00 | 49 | 1004.3 |
| 20260505003426 | 73 | 94 | 3.5 | 8.7 | 0.00 | 0.00 | 0.00 | 49 | 1004.3 |
| 20260505003040 | 73 | 82 | 4.3 | 8.7 | 0.00 | 0.00 | 0.00 | 49 | 1004.1 |
| 20260505002641 | 73 | 61 | 3.5 | 8.7 | 0.00 | 0.00 | 0.00 | 48 | 1004.3 |
| 20260505002115 | 73 | 136 | 4.3 | 8.7 | 0.00 | 0.00 | 0.00 | 48 | 1004.4 |
| 20260505001733 | 74 | 66 | 4.3 | 9.6 | 0.00 | 0.00 | 0.00 | 47 | 1004.4 |
| 20260505001622 | 74 | 79 | 3.5 | 9.6 | 0.00 | 0.00 | 0.00 | 48 | 1004.4 |
| 20260505001541 | 73 | 76 | 3.5 | 8.7 | 0.00 | 0.00 | 0.00 | 48 | 1004.2 |
| 20260505000457 | 74 | 94 | 4.3 | 13.0 | 0.00 | 0.00 | 0.00 | 47 | 1004.5 |
| 20260504235929 | 74 | 131 | 4.3 | 13.0 | 0.00 | 0.00 | 0.00 | 47 | 1004.6 |
| 20260504235428 | 74 | 142 | 6.1 | 13.0 | 0.00 | 0.00 | 0.00 | 46 | 1004.5 |
| 20260504234903 | 74 | 157 | 6.1 | 13.0 | 0.00 | 0.00 | 0.00 | 46 | 1004.6 |
| 20260504234508 | 74 | 95 | 5.2 | 10.4 | 0.00 | 0.00 | 0.00 | 45 | 1004.6 |
| 20260504234338 | 74 | 147 | 5.2 | 13.9 | 0.00 | 0.00 | 0.00 | 45 | 1004.9 |
| 20260504233806 | 75 | 170 | 4.3 | 13.9 | 0.00 | 0.00 | 0.00 | 44 | 1004.9 |
| 20260504233305 | 75 | 66 | 7.0 | 18.2 | 0.00 | 0.00 | 0.00 | 43 | 1005.0 |
| 20260504233039 | 75 | 114 | 2.6 | 18.2 | 0.00 | 0.00 | 0.00 | 43 | 1004.7 |
| 20260504232738 | 75 | 143 | 7.8 | 18.2 | 0.00 | 0.00 | 0.00 | 42 | 1004.9 |
| 20260504232211 | 76 | 130 | 7.0 | 16.5 | 0.00 | 0.00 | 0.00 | 42 | 1005.0 |
| 20260504231651 | 76 | 120 | 7.0 | 19.1 | 0.00 | 0.00 | 0.00 | 42 | 1004.9 |
| 20260504231540 | 75 | 124 | 8.7 | 19.1 | 0.00 | 0.00 | 0.00 | 42 | 1004.7 |
| 20260504231127 | 76 | 140 | 7.0 | 19.1 | 0.00 | 0.00 | 0.00 | 42 | 1004.9 |
| 20260504230613 | 76 | 141 | 7.0 | 16.5 | 0.00 | 0.00 | 0.00 | 43 | 1004.7 |
| 20260504230112 | 76 | 80 | 6.1 | 16.5 | 0.00 | 0.00 | 0.00 | 47 | 1004.9 |
| 20260504230046 | 75 | 88 | 5.2 | 16.5 | 0.00 | 0.00 | 0.00 | 47 | 1004.7 |
| 20260504225547 | 75 | 105 | 5.2 | 13.9 | 0.00 | 0.00 | 0.00 | 46 | 1005.1 |
| 20260504225019 | 75 | 87 | 4.3 | 10.4 | 0.00 | 0.00 | 0.00 | 49 | 1005.2 |
| 20260504224508 | 74 | 111 | 3.5 | 10.4 | 0.00 | 0.00 | 0.00 | 50 | 1004.9 |
| 20260504224450 | 75 | 147 | 3.5 | 10.4 | 0.00 | 0.00 | 0.00 | 50 | 1005.2 |
| 20260504223947 | 74 | 119 | 2.6 | 8.7 | 0.00 | 0.00 | 0.00 | 50 | 1005.3 |
| 20260504223645 | 74 | 155 | 2.6 | 5.2 | 0.00 | 0.00 | 0.00 | 50 | 1005.3 |
| 20260504223047 | 74 | 90 | 1.7 | 5.2 | 0.00 | 0.00 | 0.00 | 50 | 1005.1 |
| 20260504222856 | 74 | 104 | 2.6 | 8.7 | 0.00 | 0.00 | 0.00 | 50 | 1005.3 |
| 20260504222345 | 74 | 80 | 3.5 | 9.6 | 0.00 | 0.00 | 0.00 | 49 | 1005.5 |
| 20260504221842 | 74 | 132 | 3.5 | 9.6 | 0.00 | 0.00 | 0.00 | 48 | 1005.5 |
| 20260504221535 | 74 | 84 | 3.5 | 6.1 | 0.00 | 0.00 | 0.00 | 48 | 1005.2 |
| 20260504221346 | 74 | 135 | 2.6 | 7.0 | 0.00 | 0.00 | 0.00 | 48 | 1005.4 |
| 20260504221038 | 74 | 154 | 3.5 | 7.0 | 0.00 | 0.00 | 0.00 | 48 | 1005.5 |
| 20260504220255 | 74 | 141 | 3.5 | 7.0 | 0.00 | 0.00 | 0.00 | 48 | 1005.5 |
| 20260504220003 | 74 | 169 | 2.6 | 6.1 | 0.00 | 0.00 | 0.00 | 49 | 1005.3 |
| 20260504215726 | 74 | 80 | 3.5 | 7.8 | 0.00 | 0.00 | 0.00 | 49 | 1005.5 |
| 20260504215446 | 74 | 79 | 2.6 | 7.8 | 0.00 | 0.00 | 0.00 | 47 | 1005.3 |
| 20260504214720 | 74 | 97 | 2.6 | 8.7 | 0.00 | 0.00 | 0.00 | 47 | 1005.7 |
| 20260504214516 | 73 | 191 | 1.7 | 8.7 | 0.00 | 0.00 | 0.00 | 49 | 1005.6 |
| 20260504214218 | 74 | 200 | 4.3 | 8.7 | 0.00 | 0.00 | 0.00 | 49 | 1006.0 |
| 20260504213651 | 74 | 193 | 4.3 | 12.2 | 0.00 | 0.00 | 0.00 | 47 | 1005.9 |
| 20260504213123 | 74 | 158 | 4.3 | 12.2 | 0.00 | 0.00 | 0.00 | 48 | 1006.0 |
| 20260504213031 | 74 | 163 | 3.5 | 10.4 | 0.00 | 0.00 | 0.00 | 47 | 1005.9 |
| 20260504212621 | 74 | 132 | 4.3 | 10.4 | 0.00 | 0.00 | 0.00 | 47 | 1006.1 |
| 20260504212057 | 75 | 186 | 3.5 | 9.6 | 0.00 | 0.00 | 0.00 | 50 | 1006.1 |
| 20260504211544 | 75 | 99 | 4.3 | 9.6 | 0.00 | 0.00 | 0.00 | 48 | 1006.0 |
| 20260504211527 | 75 | 142 | 4.3 | 9.6 | 0.00 | 0.00 | 0.00 | 48 | 1006.2 |
| 20260504211027 | 75 | 138 | 3.5 | 12.2 | 0.00 | 0.00 | 0.00 | 49 | 1006.2 |
| 20260504210501 | 75 | 87 | 4.3 | 12.2 | 0.00 | 0.00 | 0.00 | 52 | 1006.3 |
| 20260504210020 | 74 | 179 | 3.5 | 14.8 | 0.00 | 0.00 | 0.00 | 50 | 1006.3 |
| 20260504205934 | 74 | 202 | 5.2 | 15.6 | 0.00 | 0.00 | 0.00 | 50 | 1006.5 |
| 20260504205428 | 74 | 136 | 4.3 | 15.6 | 0.00 | 0.00 | 0.00 | 50 | 1006.5 |
| 20260504204929 | 74 | 121 | 4.3 | 13.9 | 0.00 | 0.00 | 0.00 | 51 | 1006.5 |
| 20260504204621 | 74 | 164 | 4.3 | 13.9 | 0.00 | 0.00 | 0.00 | 50 | 1006.6 |
| 20260504204607 | 73 | 185 | 3.5 | 13.9 | 0.00 | 0.00 | 0.00 | 51 | 1006.4 |
| 20260504203835 | 73 | 135 | 5.2 | 13.9 | 0.00 | 0.00 | 0.00 | 51 | 1006.7 |
| 20260504203533 | 74 | 133 | 6.1 | 13.9 | 0.00 | 0.00 | 0.00 | 51 | 1006.8 |
| 20260504203136 | 73 | 208 | 5.2 | 13.9 | 0.00 | 0.00 | 0.00 | 50 | 1006.8 |
| 20260504202805 | 73 | 201 | 6.1 | 15.6 | 0.00 | 0.00 | 0.00 | 51 | 1007.0 |
| 20260504202239 | 73 | 131 | 6.1 | 15.6 | 0.00 | 0.00 | 0.00 | 50 | 1006.9 |
| 20260504201737 | 73 | 144 | 5.2 | 13.0 | 0.00 | 0.00 | 0.00 | 50 | 1006.9 |
| 20260504201554 | 73 | 118 | 4.3 | 12.2 | 0.00 | 0.00 | 0.00 | 50 | 1006.7 |
| 20260504201434 | 74 | 229 | 5.2 | 13.0 | 0.00 | 0.00 | 0.00 | 49 | 1006.9 |
| 20260504200706 | 74 | 86 | 4.3 | 11.3 | 0.00 | 0.00 | 0.00 | 50 | 1006.9 |
| 20260504200140 | 74 | 7 | 5.2 | 12.2 | 0.00 | 0.00 | 0.00 | 52 | 1006.9 |
| 20260504200047 | 73 | 101 | 3.5 | 12.2 | 0.00 | 0.00 | 0.00 | 54 | 1006.7 |
| 20260504195635 | 73 | 113 | 5.2 | 12.2 | 0.00 | 0.00 | 0.00 | 52 | 1007.0 |
| 20260504195108 | 72 | 147 | 5.2 | 15.6 | 0.00 | 0.00 | 0.00 | 58 | 1007.0 |
| 20260504194606 | 71 | 154 | 5.2 | 15.6 | 0.00 | 0.00 | 0.00 | 56 | 1007.2 |
| 20260504194514 | 71 | 166 | 6.1 | 15.6 | 0.00 | 0.00 | 0.00 | 55 | 1007.1 |
| 20260504194106 | 71 | 106 | 4.3 | 10.4 | 0.00 | 0.00 | 0.00 | 56 | 1007.3 |
| 20260504193550 | 70 | 120 | 3.5 | 10.4 | 0.00 | 0.00 | 0.00 | 58 | 1007.5 |
| 20260504193055 | 70 | 102 | 3.5 | 7.0 | 0.00 | 0.00 | 0.00 | 60 | 1007.6 |
| 20260504193022 | 69 | 155 | 3.5 | 7.8 | 0.00 | 0.00 | 0.00 | 60 | 1007.5 |
| 20260504192526 | 69 | 151 | 3.5 | 7.8 | 0.00 | 0.00 | 0.00 | 60 | 1007.6 |
| 20260504192021 | 68 | 124 | 2.6 | 7.0 | 0.00 | 0.00 | 0.00 | 63 | 1007.6 |
| 20260504191723 | 68 | 111 | 1.7 | 4.3 | 0.00 | 0.00 | 0.00 | 63 | 1007.9 |
| 20260504191537 | 67 | 116 | 1.7 | 6.1 | 0.00 | 0.00 | 0.00 | 63 | 1007.6 |
| 20260504191217 | 67 | 166 | 2.6 | 7.0 | 0.00 | 0.00 | 0.00 | 67 | 1008.2 |
| 20260504190452 | 67 | 140 | 3.5 | 6.1 | 0.00 | 0.00 | 0.00 | 64 | 1008.1 |
| 20260504190002 | 67 | 38 | 2.6 | 7.8 | 0.00 | 0.00 | 0.00 | 63 | 1007.8 |
| 20260504185917 | 68 | 86 | 3.5 | 8.7 | 0.00 | 0.00 | 0.00 | 63 | 1007.9 |
| 20260504185412 | 68 | 130 | 4.3 | 8.7 | 0.00 | 0.00 | 0.00 | 61 | 1008.3 |
| 20260504184913 | 68 | 185 | 4.3 | 8.7 | 0.00 | 0.00 | 0.00 | 60 | 1008.5 |
| 20260504184604 | 68 | 138 | 4.3 | 8.7 | 0.00 | 0.00 | 0.00 | 59 | 1008.4 |
| 20260504184511 | 68 | 135 | 5.2 | 8.7 | 0.00 | 0.00 | 0.00 | 60 | 1008.5 |
| 20260504183841 | 68 | 117 | 5.2 | 13.0 | 0.00 | 0.00 | 0.00 | 59 | 1008.2 |
| 20260504183312 | 69 | 102 | 6.1 | 17.4 | 0.00 | 0.00 | 0.00 | 58 | 1008.2 |
| 20260504183003 | 68 | 86 | 7.0 | 17.4 | 0.00 | 0.00 | 0.00 | 58 | 1008.1 |
| 20260504182813 | 69 | 115 | 6.1 | 14.8 | 0.00 | 0.00 | 0.00 | 59 | 1008.1 |
| 20260504182527 | 69 | 114 | 6.1 | 14.8 | 0.00 | 0.00 | 0.00 | 58 | 1008.1 |
| 20260504181801 | 70 | 78 | 5.2 | 13.9 | 0.00 | 0.00 | 0.00 | 56 | 1007.8 |
| 20260504181535 | 70 | 124 | 4.3 | 11.3 | 0.00 | 0.00 | 0.00 | 57 | 1007.8 |
| 20260504181257 | 70 | 159 | 4.3 | 9.6 | 0.00 | 0.00 | 0.00 | 56 | 1007.8 |
| 20260504180755 | 70 | 157 | 5.2 | 13.0 | 0.00 | 0.00 | 0.00 | 58 | 1007.6 |
| 20260504180231 | 70 | 119 | 6.1 | 16.5 | 0.00 | 0.00 | 0.00 | 56 | 1007.5 |
| 20260504180056 | 70 | 160 | 5.2 | 15.6 | 0.00 | 0.00 | 0.00 | 56 | 1007.5 |
| 20260504175703 | 70 | 112 | 6.1 | 16.5 | 0.00 | 0.00 | 0.00 | 56 | 1007.4 |
| 20260504175137 | 70 | 134 | 5.2 | 12.2 | 0.00 | 0.00 | 0.00 | 57 | 1007.4 |
| 20260504174612 | 70 | 130 | 4.3 | 12.2 | 0.00 | 0.00 | 0.00 | 57 | 1007.2 |
| 20260504174546 | 70 | 72 | 3.5 | 12.2 | 0.00 | 0.00 | 0.00 | 60 | 1007.2 |
| 20260504174335 | 70 | 105 | 4.3 | 9.6 | 0.00 | 0.00 | 0.00 | 58 | 1007.3 |
| 20260504173604 | 70 | 121 | 4.3 | 11.3 | 0.00 | 0.00 | 0.00 | 59 | 1007.2 |
| 20260504173044 | 69 | 170 | 4.3 | 11.3 | 0.00 | 0.00 | 0.00 | 60 | 1007.4 |
| 20260504173013 | 69 | 156 | 5.2 | 11.3 | 0.00 | 0.00 | 0.00 | 60 | 1007.4 |
| 20260504172543 | 69 | 64 | 5.2 | 11.3 | 0.00 | 0.00 | 0.00 | 60 | 1007.6 |
| 20260504172307 | 69 | 103 | 5.2 | 12.2 | 0.00 | 0.00 | 0.00 | 61 | 1007.6 |
| 20260504171544 | 68 | 109 | 4.3 | 10.4 | 0.00 | 0.00 | 0.00 | 62 | 1007.5 |
| 20260504171511 | 68 | 107 | 2.6 | 9.6 | 0.00 | 0.00 | 0.00 | 61 | 1007.6 |
| 20260504171015 | 68 | 112 | 3.5 | 8.7 | 0.00 | 0.00 | 0.00 | 60 | 1007.4 |
| 20260504170503 | 68 | 116 | 4.3 | 10.4 | 0.00 | 0.00 | 0.00 | 60 | 1007.5 |